Location: Milton
(43.5183°N, 79.8775°W)
Time: 18:20:39
(UTC+00:00)

Altair 2 - Visible Passes

Search period start: 26 May 2024 00:00
Search period end: 05 June 2024 00:00
Orbit: 831 x 956 km, 79.9° (Epoch: 26 May)

Date Brightness Start Highest point End Pass type
(mag) Time Alt. Az. Time Alt. Az. Time Alt. Az.
26 May 6.7 02:03:10 10° SSW 02:08:33 49° WNW 02:14:08 10° N visible
27 May 7.1 02:04:10 10° SW 02:09:26 41° WNW 02:14:53 10° N visible
28 May 7.4 02:05:13 10° SW 02:10:19 35° WNW 02:15:36 10° N visible
29 May 7.8 02:06:20 10° SW 02:11:14 30° WNW 02:16:17 10° N visible
30 May 8.1 02:07:31 10° WSW 02:12:10 26° WNW 02:16:56 10° N visible
31 May 8.4 02:08:46 10° WSW 02:13:06 22° WNW 02:17:34 10° NNW visible
01 Jun 8.5 02:10:06 10° WSW 02:14:03 19° WNW 02:18:07 10° NNW visible
02 Jun 8.7 02:11:33 10° W 02:15:03 16° WNW 02:18:36 10° NNW visible
03 Jun 8.9 02:13:10 10° W 02:16:02 14° WNW 02:18:57 10° NNW visible
04 Jun 9.1 02:15:03 10° WNW 02:17:03 12° NW 02:19:04 10° NW visible
